Wetbulb
56.14 55.69 55.90 55.86 55.80 55.73 55.72 55.77 55.81 56.05 56.14 56.37 56.31 56.31 56.18 56.40 56.09 53.30 50.17 50.62 54.78 61.92 61.56 55.25 56.13 56.30 51.32 45.86 45.79 44.06 38.28 36.90 38.71 41.56 43.73 47.99 47.06 50.98 52.09 50.00 51.95 53.45 52.79 69.16 71.48
55.84 55.76 55.80 55.80 55.50 55.60 55.55 55.87 56.04 56.18 56.33 56.55 56.66 56.44 56.29 56.28 51.89 51.77 55.31 59.60 60.74 61.02 54.38 52.39 50.81 50.97 43.95 44.27 43.01 38.93 34.41 37.75 43.49 44.83 44.11 46.52 46.89 47.63 48.35 48.50 49.53 51.75 54.67 69.26 69.49
55.49 55.52 55.50 55.42 55.49 55.64 55.56 55.92 56.15 56.44 56.51 56.32 56.32 56.34 56.20 55.31 50.25 48.44 58.45 60.23 58.83 59.51 55.26 53.94 52.28 49.07 42.60 43.66 43.46 41.04 37.70 41.72 43.65 45.31 46.63 45.90 46.07 48.02 46.76 45.31 48.06 49.51 52.75 57.83 65.62
55.34 55.29 55.33 55.24 55.14 55.45 55.61 55.92 56.33 56.60 56.53 56.50 56.14 56.16 56.08 52.77 42.71 51.66 60.52 59.81 60.56 58.90 55.30 52.82 48.69 43.21 41.03 40.79 44.70 38.66 43.34 43.44 43.20 44.54 43.35 42.82 45.28 45.08 45.98 46.88 50.28 51.61 54.79 54.47 52.97
54.81 54.97 55.05 54.79 55.02 55.14 55.48 55.66 55.98 56.15 56.20 56.43 56.24 56.06 53.23 49.77 51.20 58.53 61.54 60.53 58.06 56.36 52.72 49.13 46.03 43.98 40.29 42.79 44.54 41.89 43.64 45.34 45.11 43.90 43.70 45.01 43.40 43.39 44.40 48.05 49.98 50.90 54.08 53.26 53.17
55.03 54.56 54.56 54.58 54.64 54.80 55.34 55.52 55.58 55.76 56.09 57.10 56.49 55.84 51.49 47.01 56.96 58.86 57.25 56.19 56.56 52.04 51.80 50.11 46.95 47.81 43.80 42.97 41.23 44.28 44.82 45.00 45.01 44.29 44.24 43.19 43.38 44.09 46.11 48.39 48.53 49.19 51.02 52.79 52.92
54.51 54.53 54.08 53.90 54.13 54.35 55.12 55.07 55.16 55.54 56.83 57.85 56.92 54.76 50.79 49.01 55.32 57.03 55.18 52.21 53.71 54.07 51.20 52.02 51.90 47.52 46.26 42.71 46.03 45.77 41.41 43.80 44.08 44.12 43.14 44.78 41.35 42.43 46.80 48.02 46.52 47.52 48.90 51.41 52.24
54.21 54.04 53.93 53.67 53.84 54.22 54.67 55.22 55.34 55.51 57.53 57.05 56.24 53.39 47.87 55.99 54.47 52.85 53.79 53.42 53.81 54.31 53.41 53.48 52.82 48.51 44.56 45.97 44.94 41.67 40.20 34.86 41.99 44.76 45.38 43.11 37.52 44.37 46.79 45.88 45.60 46.81 48.08 49.16 50.33
54.17 53.69 53.73 53.65 54.18 54.57 54.79 54.85 55.10 56.06 58.00 57.97 53.04 50.85 47.89 56.69 53.13 55.36 54.42 51.66 52.51 53.16 52.89 55.15 50.72 45.91 45.98 40.02 36.68 38.50 33.95 36.70 40.34 45.86 44.53 42.46 39.49 44.57 46.29 45.13 45.26 45.78 46.55 47.93 48.55
53.92 53.32 53.42 53.89 54.26 54.46 54.39 54.59 54.95 54.74 57.04 57.35 56.39 48.94 52.05 51.08 54.07 54.99 53.40 53.56 50.99 50.79 49.47 48.38 45.18 41.28 40.64 36.98 30.37 34.76 36.02 38.98 39.19 44.26 45.51 41.55 40.94 43.70 44.70 45.18 44.94 45.38 47.05 47.75 48.26
53.84 53.28 53.23 53.73 54.06 54.08 52.72 50.92 47.07 48.13 50.79 48.24 47.97 50.70 51.34 53.18 54.74 52.15 54.04 52.40 51.56 48.42 41.20 44.45 40.38 37.57 40.49 42.46 42.82 41.97 39.78 38.33 41.71 45.18 43.09 41.37 41.42 43.66 44.52 43.88 43.86 43.70 45.00 46.84 47.89
53.65 53.24 53.42 53.67 53.75 53.94 50.18 48.41 48.59 48.22 43.51 50.87 51.21 52.01 52.78 52.87 48.49 51.12 54.00 48.71 46.73 41.35 44.43 42.59 38.90 43.99 46.16 45.77 43.61 41.86 39.34 38.69 42.53 45.03 43.65 41.93 41.17 44.17 45.58 44.08 45.01 44.97 44.99 45.72 47.55
52.70 52.80 53.11 53.69 53.54 50.73 49.65 52.42 52.77 52.80 42.55 49.40 52.35 49.24 49.43 50.40 47.69 48.55 52.18 49.11 45.20 42.01 41.68 38.77 41.67 46.01 44.57 42.70 40.85 40.51 39.70 39.37 39.41 43.51 44.22 41.80 39.53 41.59 45.15 46.53 46.90 46.40 46.99 48.05 47.64
52.30 52.38 52.49 52.40 51.11 52.93 48.90 51.53 54.56 53.57 38.93 47.03 47.27 49.10 50.73 49.89 47.06 53.68 53.38 49.52 45.05 41.45 41.94 40.49 44.62 43.93 42.35 40.78 41.93 37.04 43.73 42.81 41.42 39.52 32.82 41.65 30.75 38.74 41.55 43.53 45.76 46.52 46.68 47.75 47.64
52.22 52.13 51.91 51.28 49.80 50.20 51.64 52.44 55.62 51.92 29.59 45.16 46.05 52.39 49.15 46.10 48.35 51.05 54.40 50.46 43.77 43.74 43.77 40.24 41.34 40.86 40.16 41.40 43.63 39.32 43.75 41.48 40.76 37.30 35.72 36.97 33.43 37.36 41.76 40.74 43.41 46.09 47.26 47.18 48.68
52.57 51.84 51.54 52.84 50.85 53.95 51.93 52.70 52.64 40.21 32.75 42.25 45.42 43.83 43.44 46.29 47.84 48.96 48.85 50.24 48.29 43.85 44.27 42.70 47.13 45.30 44.12 46.11 45.85 45.85 42.16 40.51 39.06 36.82 30.26 34.78 35.06 34.35 37.83 40.90 43.51 46.62 47.96 49.24 49.42
52.61 51.32 49.52 53.00 49.83 54.06 51.92 49.85 38.38 33.28 43.46 40.21 39.76 42.67 42.81 42.51 44.26 44.98 42.65 40.48 37.74 35.05 36.12 41.13 42.11 45.51 46.55 40.78 43.93 42.10 38.14 30.93 29.09 28.46 27.31 37.23 34.40 35.95 41.10 44.32 45.28 45.78 47.03 48.53 49.18
50.99 50.04 52.44 53.20 55.04 54.19 50.46 43.72 32.36 40.91 39.57 42.85 42.09 42.87 40.23 42.30 42.52 42.43 40.22 37.05 42.64 40.34 34.55 33.99 31.61 41.48 44.14 40.29 37.47 37.13 36.80 31.29 24.19 26.15 29.49 36.65 30.47 33.91 44.13 46.98 47.37 47.61 48.80 49.26 48.49
49.82 54.84 54.11 56.08 55.69 53.81 47.34 37.09 34.89 40.04 42.38 40.88 41.27 38.19 38.12 41.41 41.38 40.03 38.99 38.01 41.27 41.73 34.74 33.24 33.56 41.95 42.18 42.73 40.43 34.91 32.06 39.73 32.51 32.95 28.59 30.28 35.15 40.01 43.61 44.75 46.26 46.58 48.74 48.34 48.59
47.85 51.52 53.67 55.54 54.78 51.85 43.69 40.70 40.90 45.96 45.00 43.68 35.87 39.42 34.42 37.78 38.04 37.60 38.11 42.58 41.11 44.21 43.76 37.54 30.85 39.43 41.02 42.49 42.08 38.53 41.08 31.88 33.78 21.07 20.57 28.12 30.78 31.55 38.74 40.90 44.94 45.51 44.50 46.67 48.59
49.63 50.36 52.89 57.04 54.95 47.11 37.71 40.15 44.35 47.98 46.76 42.69 39.18 37.64 38.21 36.69 37.89 36.86 38.63 41.80 43.85 42.86 42.68 39.55 33.61 34.24 37.42 35.44 33.59 35.94 33.43 36.56 36.76 35.04 26.72 22.91 27.02 38.71 39.51 42.86 43.06 43.03 45.67 45.18 47.52
48.04 45.88 55.06 57.20 45.16 44.36 40.82 45.09 45.86 46.65 47.75 44.98 43.12 41.04 37.93 38.19 37.00 37.17 36.68 39.57 46.17 43.26 38.28 40.62 34.34 30.47 32.26 38.87 41.03 38.78 36.68 36.84 32.07 28.51 31.38 28.49 28.84 42.07 41.21 44.40 43.23 43.43 46.53 45.89 46.30
45.34 49.29 57.18 54.92 41.01 42.01 45.22 46.51 47.66 45.96 44.54 43.26 41.41 42.14 41.42 37.65 34.04 37.56 39.27 45.79 45.12 42.06 37.02 37.80 33.01 27.76 29.09 34.84 40.36 38.38 39.91 39.80 38.81 36.44 31.40 28.10 27.95 43.39 43.36 43.11 44.16 43.63 44.28 46.48 47.23
47.58 44.75 49.05 50.56 48.87 44.57 43.08 43.70 44.81 48.68 45.75 45.22 42.60 42.74 39.22 37.48 39.74 37.30 39.38 42.96 45.11 44.77 46.40 41.22 34.28 32.72 26.76 30.08 34.31 32.21 35.28 37.30 37.01 32.42 32.83 32.62 34.05 39.16 41.37 42.50 44.65 44.05 45.13 45.41 47.26
49.73 45.51 48.39 41.64 43.98 45.35 45.79 45.89 43.80 41.68 45.76 44.49 40.73 40.82 38.68 35.02 37.80 37.35 39.86 41.08 43.55 45.54 43.32 39.04 32.65 33.85 34.90 36.01 36.05 35.22 35.51 36.87 34.93 36.69 33.54 34.62 35.57 39.35 41.47 41.76 43.83 45.26 46.67 47.67 50.32
47.58 45.96 47.71 45.18 46.80 45.46 44.78 43.75 43.54 44.72 43.05 40.28 39.41 41.66 40.83 37.29 38.31 36.35 39.02 39.09 38.59 41.00 38.13 39.56 32.76 34.88 31.65 36.08 36.72 36.72 32.96 33.25 33.63 34.39 33.97 34.13 33.70 39.56 41.34 40.96 41.86 45.11 46.74 47.00 49.42
51.62 50.79 46.48 44.66 44.47 42.65 43.06 43.41 44.61 44.94 45.18 45.37 43.35 40.78 40.49 42.36 44.05 44.16 44.54 43.70 44.23 38.64 37.35 37.41 34.99 32.95 28.30 35.50 35.26 32.01 30.13 30.22 31.51 32.78 31.80 28.24 33.38 37.10 35.43 36.55 38.78 41.69 45.32 47.36 50.07
MSLP
1019.67 1019.24 1018.81 1018.42 1018.07 1017.66 1017.27 1016.97 1016.66 1016.36 1016.06 1015.75 1015.46 1015.20 1014.92 1014.54 1013.83 1012.97 1012.85 1011.64 1011.41 1011.22 1010.91 1010.30 1009.83 1009.42 1009.31 1009.51 1009.48 1009.38 1009.70 1008.92 1008.36 1007.54 1006.07 1004.63 1003.66 1001.87 1002.00 1001.67 1000.26 998.46 997.45 998.35 999.01
1019.72 1019.23 1018.82 1018.45 1018.07 1017.67 1017.26 1016.91 1016.58 1016.24 1015.91 1015.59 1015.28 1015.01 1014.75 1014.37 1013.60 1012.39 1011.47 1011.36 1011.34 1011.20 1010.97 1010.57 1009.93 1009.31 1009.49 1009.29 1009.28 1009.53 1009.30 1008.68 1008.12 1007.27 1006.16 1005.00 1004.17 1003.65 1002.73 1002.09 1001.10 1000.30 998.43 998.28 999.03
1019.76 1019.22 1018.74 1018.34 1017.97 1017.58 1017.16 1016.78 1016.49 1016.13 1015.78 1015.52 1015.23 1014.92 1014.62 1014.34 1013.54 1011.68 1011.25 1011.38 1011.30 1011.28 1011.04 1010.49 1009.96 1009.68 1009.74 1009.29 1008.98 1008.82 1008.67 1008.07 1007.44 1006.68 1005.99 1005.31 1004.36 1004.01 1003.58 1002.58 1002.77 1002.12 1000.83 999.47 999.30
1019.73 1019.20 1018.66 1018.22 1017.83 1017.42 1017.03 1016.61 1016.33 1016.03 1015.68 1015.45 1015.21 1014.91 1014.54 1014.27 1012.97 1011.15 1011.22 1011.17 1011.06 1011.07 1010.88 1010.11 1009.70 1009.64 1009.61 1009.35 1008.48 1008.39 1007.61 1007.07 1006.63 1006.04 1005.72 1005.37 1004.75 1003.91 1003.90 1002.70 1003.07 1002.43 1001.93 1000.39 1001.05
1019.70 1019.15 1018.61 1018.12 1017.68 1017.29 1016.93 1016.54 1016.18 1015.88 1015.61 1015.42 1015.25 1014.97 1014.29 1013.59 1011.64 1011.07 1010.98 1010.89 1010.78 1010.68 1010.47 1010.09 1009.95 1009.82 1009.81 1009.43 1008.87 1008.16 1007.50 1006.80 1006.19 1005.93 1005.55 1005.21 1004.91 1004.49 1003.48 1002.83 1002.91 1002.33 1001.99 1001.54 1001.37
1019.65 1019.10 1018.52 1018.01 1017.54 1017.12 1016.78 1016.45 1016.12 1015.80 1015.56 1015.30 1015.22 1015.15 1014.61 1012.57 1009.96 1010.32 1010.36 1010.36 1010.37 1010.03 1009.87 1009.82 1009.80 1009.59 1009.59 1009.58 1009.48 1008.58 1007.81 1007.07 1006.43 1006.04 1005.80 1005.62 1005.23 1004.91 1003.40 1003.06 1003.01 1002.41 1001.99 1001.71 1001.53
1019.45 1018.94 1018.39 1017.85 1017.34 1016.92 1016.54 1016.21 1015.91 1015.60 1015.37 1015.09 1015.10 1014.96 1013.80 1011.21 1009.24 1009.80 1009.77 1009.60 1009.45 1009.43 1009.55 1009.68 1009.65 1009.95 1009.93 1009.86 1009.16 1008.98 1008.51 1007.41 1006.75 1006.15 1005.70 1005.60 1005.24 1004.67 1003.56 1003.03 1002.95 1002.59 1002.05 1001.60 1001.36
1019.21 1018.66 1018.10 1017.53 1016.98 1016.53 1016.21 1015.86 1015.54 1015.33 1015.13 1015.00 1015.05 1014.67 1012.58 1009.71 1009.30 1009.32 1009.20 1009.04 1008.77 1008.70 1008.96 1009.15 1009.45 1009.90 1010.13 1010.03 1009.71 1009.44 1008.76 1007.72 1006.82 1005.92 1005.04 1005.38 1004.66 1003.44 1003.41 1003.26 1002.78 1002.50 1002.04 1001.77 1001.13
1018.96 1018.41 1017.83 1017.23 1016.66 1016.18 1015.83 1015.45 1015.15 1014.86 1014.77 1014.83 1014.92 1014.29 1011.49 1009.40 1009.13 1008.71 1008.66 1008.62 1008.56 1008.34 1008.45 1008.66 1009.05 1009.89 1010.12 1010.23 1010.11 1009.33 1008.62 1007.47 1006.24 1005.09 1004.59 1004.48 1003.54 1003.05 1002.83 1002.94 1002.56 1002.30 1001.97 1001.65 1001.17
1018.68 1018.09 1017.49 1016.92 1016.39 1015.92 1015.40 1014.60 1014.63 1014.70 1014.22 1014.27 1013.84 1013.54 1010.73 1008.92 1008.00 1008.09 1008.10 1008.03 1008.01 1008.12 1008.45 1008.72 1009.17 1009.66 1009.95 1010.25 1009.75 1008.89 1007.90 1006.78 1005.66 1004.99 1004.26 1004.11 1003.31 1002.87 1002.31 1002.45 1002.34 1001.94 1001.39 1001.18 1001.05
1018.50 1017.78 1017.12 1016.50 1016.03 1015.67 1015.01 1014.19 1014.60 1014.38 1013.68 1012.64 1011.67 1010.60 1009.16 1008.12 1007.80 1007.68 1007.41 1007.47 1007.44 1008.06 1008.62 1008.59 1009.09 1009.22 1008.92 1008.81 1008.23 1007.70 1007.27 1006.36 1005.32 1004.77 1004.41 1003.85 1003.16 1002.91 1002.42 1002.10 1002.09 1002.01 1001.57 1000.98 1000.73
1018.33 1017.54 1016.75 1016.02 1015.55 1015.53 1015.57 1014.42 1012.50 1012.22 1011.20 1010.39 1009.81 1008.89 1008.18 1007.70 1007.38 1006.96 1006.61 1007.21 1007.53 1008.02 1008.16 1008.42 1008.15 1007.79 1007.55 1007.30 1007.16 1006.71 1006.34 1005.79 1005.05 1004.80 1004.61 1003.95 1002.55 1002.60 1002.18 1002.01 1001.75 1001.59 1001.53 1001.04 1000.37
1018.27 1017.39 1016.49 1015.72 1014.82 1015.13 1014.28 1012.66 1011.16 1011.30 1011.49 1009.20 1007.96 1007.62 1007.47 1007.33 1006.79 1006.23 1006.38 1006.65 1007.29 1007.73 1008.15 1007.95 1007.39 1007.04 1006.53 1006.16 1006.12 1005.73 1005.33 1005.11 1004.90 1004.76 1004.15 1004.59 1002.43 1002.45 1001.86 1001.39 1001.29 1000.68 1000.41 1000.53 1000.23
1018.15 1017.30 1016.53 1015.43 1014.83 1013.51 1012.59 1011.29 1011.22 1011.45 1011.36 1008.44 1007.36 1006.88 1006.94 1006.72 1006.35 1005.71 1006.08 1006.47 1006.96 1007.37 1007.72 1007.37 1006.97 1006.77 1006.33 1005.94 1006.07 1005.04 1005.16 1004.77 1004.88 1004.93 1004.47 1005.51 1003.03 1001.99 1001.72 1001.09 1000.54 1000.25 1000.07 999.72 999.56
1017.82 1016.98 1016.22 1016.32 1015.45 1013.78 1011.89 1011.08 1011.18 1011.67 1010.77 1007.67 1007.30 1006.60 1007.07 1007.16 1006.36 1006.16 1006.16 1006.45 1007.14 1007.43 1007.60 1006.72 1006.64 1006.36 1005.96 1005.65 1005.81 1004.64 1005.17 1005.23 1005.33 1005.26 1005.17 1005.53 1005.20 1000.04 1001.62 1000.65 1000.14 999.84 999.50 999.16 998.63
1017.45 1016.77 1016.12 1014.92 1014.97 1012.70 1011.41 1011.07 1011.39 1011.99 1010.03 1008.34 1008.03 1007.74 1007.76 1007.27 1006.69 1006.71 1007.17 1007.68 1007.80 1007.53 1007.30 1006.68 1006.51 1006.18 1005.45 1006.05 1005.53 1005.08 1005.45 1005.56 1006.02 1005.95 1005.39 1005.41 1004.83 1000.14 1000.44 999.73 999.27 998.99 998.35 997.88 997.75
1016.89 1015.91 1016.14 1014.77 1013.47 1011.81 1011.47 1011.45 1012.08 1011.47 1010.06 1009.29 1008.97 1009.15 1008.57 1008.33 1007.89 1008.07 1008.43 1009.01 1009.72 1009.53 1008.90 1007.95 1006.60 1005.63 1006.40 1006.53 1006.74 1006.96 1007.47 1007.37 1007.16 1006.94 1005.13 1004.33 1003.37 999.82 999.39 998.86 998.43 997.90 997.62 997.07 996.54
1016.19 1014.74 1013.97 1013.32 1012.41 1012.15 1011.98 1012.50 1012.26 1011.08 1010.76 1010.50 1010.35 1009.95 1009.40 1009.24 1009.24 1009.22 1009.47 1009.89 1010.07 1010.65 1010.65 1009.57 1007.86 1006.80 1006.96 1007.38 1007.36 1007.51 1008.32 1008.91 1008.12 1007.34 1006.02 1004.90 1002.06 1000.13 998.90 998.06 997.41 997.21 996.65 995.90 995.75
1015.98 1014.19 1013.52 1012.19 1012.07 1011.88 1012.65 1012.81 1012.08 1011.63 1011.48 1011.08 1010.89 1010.49 1010.49 1010.49 1010.18 1010.09 1010.38 1010.33 1010.55 1011.54 1012.41 1011.33 1009.65 1008.40 1007.82 1007.23 1007.29 1006.41 1007.21 1007.85 1008.39 1007.77 1007.07 1004.59 1001.83 999.76 998.52 997.22 997.12 996.44 995.98 995.30 994.96
1016.91 1014.93 1012.74 1011.45 1011.33 1012.17 1013.11 1012.95 1012.36 1011.71 1011.45 1011.68 1011.81 1011.65 1011.27 1010.91 1010.66 1010.92 1010.55 1010.46 1010.74 1011.35 1012.28 1012.10 1010.02 1008.59 1007.30 1006.92 1006.10 1006.00 1006.64 1008.24 1008.03 1007.47 1005.74 1002.99 1001.27 999.71 998.70 998.06 996.94 996.66 996.42 996.11 995.13
1016.78 1014.82 1011.98 1010.88 1010.95 1012.48 1013.34 1013.19 1012.51 1011.66 1011.21 1011.42 1011.56 1011.71 1011.94 1011.57 1011.47 1011.09 1010.83 1010.48 1010.33 1011.36 1012.15 1012.34 1011.43 1008.86 1008.62 1006.93 1005.84 1005.82 1006.52 1007.45 1007.84 1007.24 1005.66 1003.57 1001.05 999.12 998.92 998.83 997.98 997.35 996.73 995.87 995.38
1017.95 1015.21 1012.13 1011.30 1012.34 1013.00 1013.51 1013.10 1012.62 1011.51 1010.95 1010.91 1011.29 1011.68 1011.83 1011.69 1011.30 1010.95 1010.40 1009.99 1009.43 1010.36 1011.88 1012.39 1011.89 1009.91 1008.12 1005.84 1005.54 1005.29 1005.67 1006.17 1006.85 1006.07 1005.18 1003.80 1000.24 999.25 998.72 998.15 997.86 997.32 995.98 995.30 995.07
1019.04 1015.68 1012.42 1012.43 1013.92 1014.24 1013.78 1013.32 1012.35 1011.20 1010.98 1010.98 1011.32 1011.52 1011.48 1011.51 1010.98 1010.59 1009.54 1009.04 1009.27 1010.18 1011.66 1012.35 1012.12 1010.35 1007.33 1005.42 1005.16 1005.45 1005.70 1006.17 1006.32 1005.80 1004.45 1003.93 1000.33 999.12 998.72 998.39 997.77 997.40 996.10 995.25 995.10
1019.81 1016.80 1015.21 1014.50 1015.22 1015.13 1014.53 1013.55 1012.11 1011.12 1011.03 1010.98 1011.11 1010.94 1011.07 1010.96 1010.58 1009.62 1009.18 1008.86 1009.00 1009.81 1010.52 1011.59 1011.66 1010.77 1009.23 1007.29 1006.68 1006.16 1005.60 1005.62 1005.84 1005.09 1004.22 1003.05 1001.02 1000.22 999.51 998.79 997.98 997.06 996.90 995.97 995.32
1019.71 1018.24 1017.54 1016.55 1016.15 1015.72 1014.99 1013.83 1012.64 1011.45 1011.35 1011.29 1010.91 1011.10 1010.86 1010.16 1009.62 1009.54 1008.97 1008.13 1008.00 1009.30 1010.33 1011.24 1010.89 1010.07 1008.62 1007.10 1006.34 1005.63 1004.97 1005.03 1004.99 1004.96 1003.91 1003.28 1002.21 1001.18 1000.37 1000.11 999.44 998.18 997.72 996.74 995.92
1020.28 1019.86 1019.24 1018.23 1016.93 1016.01 1015.15 1014.30 1013.28 1012.22 1011.98 1011.16 1011.12 1010.48 1010.17 1010.12 1010.19 1009.05 1008.46 1008.16 1008.12 1009.71 1010.68 1010.93 1010.00 1009.15 1007.12 1005.85 1005.31 1005.03 1006.47 1006.59 1006.17 1005.39 1004.87 1003.97 1002.83 1002.18 1001.81 1000.95 999.83 998.97 998.13 997.15 996.38
1020.95 1020.36 1020.02 1018.56 1017.60 1016.86 1015.64 1015.09 1013.89 1012.81 1011.94 1011.70 1010.89 1010.18 1009.86 1009.80 1009.32 1008.56 1007.65 1007.55 1007.59 1008.76 1010.09 1010.43 1010.04 1008.78 1006.21 1005.32 1004.72 1005.28 1007.01 1006.97 1006.53 1005.86 1005.54 1004.60 1003.03 1002.85 1002.55 1001.31 1000.38 999.72 998.57 997.36 996.62
Wind_Speed
20 20 19 18 18 18 18 17 17 16 15 16 16 15 16 18 20 5 4 1 2 7 9 9 11 13 9 6 8 6 6 10 10 12 14 15 15 18 17 13 20 16 7 12 12
21 20 20 19 18 18 18 18 17 17 17 17 17 17 17 18 5 7 4 3 2 8 6 10 12 11 5 5 4 5 5 7 9 14 14 13 15 14 18 19 19 23 5 13 11
21 21 20 19 19 18 18 18 18 18 18 17 17 17 17 16 4 2 8 4 1 4 7 11 11 7 7 7 9 8 11 13 16 17 14 14 17 10 15 15 14 19 22 3 6
21 21 21 20 19 18 18 18 18 18 18 17 16 16 16 4 5 3 9 5 4 6 6 9 7 6 5 7 9 5 12 13 11 10 9 9 11 15 12 21 15 20 19 16 9
22 21 21 21 20 19 18 18 19 19 18 16 13 13 8 3 5 6 9 7 5 6 10 9 8 7 7 8 11 8 9 10 9 8 8 10 10 9 18 18 14 19 17 13 15
20 21 21 21 20 19 17 16 16 16 16 13 10 9 3 5 9 12 9 7 9 7 8 8 7 9 6 8 7 8 12 12 10 10 8 8 8 9 23 16 17 17 16 14 14
20 20 21 21 20 18 16 15 14 16 14 10 6 5 4 11 5 11 10 9 9 8 5 6 10 8 10 8 9 16 13 15 11 8 10 8 11 16 21 18 16 17 17 16 16
21 21 21 21 20 18 17 15 15 15 13 7 4 4 7 6 4 5 9 9 7 8 5 6 6 7 5 9 10 13 9 9 9 14 20 9 19 21 13 14 16 14 16 16 17
22 21 21 21 19 18 16 15 16 15 10 6 3 3 7 3 6 9 9 7 9 7 7 8 4 4 8 7 7 7 12 16 20 19 18 11 22 18 14 11 17 14 12 14 18
23 22 20 20 19 16 16 19 8 9 6 6 8 5 7 7 5 8 4 12 14 7 6 5 5 5 7 5 8 11 11 14 15 16 13 8 13 10 9 13 13 11 11 15 15
25 23 21 19 18 14 10 3 3 2 3 8 12 10 16 8 8 5 10 12 10 2 7 9 8 11 18 17 18 15 17 20 18 15 14 15 14 15 11 6 9 10 12 13 16
26 25 23 20 16 10 3 4 5 7 10 14 17 16 12 9 9 12 13 5 4 9 9 11 14 18 20 21 23 20 21 23 20 18 18 17 20 13 13 8 12 9 8 11 13
26 26 24 20 19 1 5 8 5 8 3 11 11 5 4 4 10 16 4 6 8 8 12 14 16 20 21 15 18 18 17 16 20 18 17 14 27 17 12 13 12 10 10 13 19
26 26 24 26 3 6 2 7 8 6 2 7 7 3 5 8 12 1 7 6 4 11 11 12 11 19 20 21 19 21 14 17 17 10 14 7 21 18 5 12 12 12 14 16 16
26 26 25 6 7 5 8 5 5 3 4 6 15 4 18 11 15 7 6 5 10 18 13 16 14 16 18 21 20 25 18 17 20 10 14 10 9 21 6 16 16 20 14 13 19
29 26 20 1 4 10 8 7 2 2 3 4 12 16 21 17 13 16 12 13 11 13 15 16 12 17 16 17 17 17 14 14 12 7 14 8 14 23 14 20 18 17 18 19 22
31 28 11 5 5 10 6 5 3 2 14 12 20 20 18 14 17 18 18 17 6 9 10 18 11 10 9 9 8 13 4 4 5 8 13 9 13 19 5 13 20 21 19 17 23
34 28 8 6 7 8 4 4 3 14 13 15 17 19 12 21 10 13 16 16 2 5 5 7 10 9 11 12 12 15 8 4 7 4 3 4 10 7 10 18 16 15 15 19 16
28 4 3 5 9 2 5 3 3 10 14 15 13 12 12 19 14 13 12 7 7 7 3 7 7 23 26 21 10 2 6 7 5 8 4 7 11 13 22 21 13 10 7 11 12
7 4 4 5 2 3 3 5 11 13 9 10 10 12 19 20 16 16 8 6 11 4 6 5 16 14 19 13 14 13 5 3 4 4 7 5 7 5 10 11 7 6 6 6 10
1 5 3 6 2 3 1 7 14 19 7 5 10 14 14 13 17 13 8 14 8 4 2 7 8 10 9 6 7 2 2 3 4 5 4 5 6 7 6 3 10 10 9 9 5
7 5 5 6 5 3 5 11 15 13 11 7 6 6 9 15 14 9 11 13 11 5 2 2 4 8 14 27 20 18 9 13 5 5 4 6 15 8 9 9 8 11 8 9 6
7 5 5 7 5 5 6 12 19 13 6 8 6 8 11 10 13 12 17 12 3 4 3 5 5 8 7 4 5 4 2 6 11 9 16 10 9 5 11 6 8 9 11 10 7
4 4 5 5 8 9 12 13 17 12 12 11 13 11 11 16 13 17 15 13 5 6 14 11 5 8 12 17 15 23 22 20 16 8 6 13 22 15 14 15 9 9 13 11 8
3 4 5 6 9 13 12 14 19 16 10 12 5 12 16 18 11 11 23 22 22 5 4 2 6 11 17 23 23 26 28 24 18 12 9 8 16 13 11 11 15 11 8 12 8
4 4 4 11 10 12 12 12 18 22 14 9 13 17 16 8 10 25 25 21 21 6 4 5 6 11 19 20 19 15 13 10 5 6 10 11 14 13 12 15 15 12 10 11 6
4 4 3 6 8 9 7 17 22 16 5 15 20 13 8 14 15 19 22 12 1 8 7 3 4 7 10 13 22 2 3 16 15 11 8 9 4 6 16 22 17 13 9 14 7
Wind_Direction
352 351 347 346 342 338 335 334 333 332 331 330 330 330 328 326 313 239 250 93 68 344 316 282 260 263 234 217 249 285 257 256 265 274 288 295 304 316 338 340 331 291 119 134 129
349 347 345 343 341 337 334 332 331 329 328 328 328 329 331 332 291 275 137 151 59 11 345 328 324 334 339 285 233 191 269 266 254 276 283 287 308 327 331 335 324 337 51 129 132
348 345 343 341 339 336 332 329 329 328 326 327 328 329 330 323 280 97 171 166 47 307 268 279 269 269 269 268 266 232 237 248 264 275 284 293 301 316 321 304 315 318 321 141 146
345 343 341 338 336 331 328 325 326 325 323 323 324 324 320 284 32 100 168 178 242 276 288 283 292 293 287 278 270 270 244 241 243 262 290 296 302 298 296 285 306 305 317 332 322
342 341 338 334 331 327 325 322 322 322 323 323 324 328 333 258 239 146 170 212 259 258 273 308 315 319 335 338 328 325 309 320 313 311 298 295 298 293 291 297 297 299 310 323 326
337 337 335 331 327 324 320 316 315 316 321 322 324 324 248 276 139 160 192 202 219 290 309 322 316 308 313 304 303 299 306 302 299 300 298 304 300 323 291 298 304 301 298 309 309
336 335 332 329 325 320 314 311 310 313 317 318 320 282 267 250 107 174 208 212 231 238 264 302 328 351 334 317 292 318 312 303 303 283 267 255 270 252 264 282 281 290 299 296 298
336 335 331 328 322 317 313 308 305 306 307 317 323 274 259 325 214 312 260 262 258 232 225 227 261 284 290 281 294 291 285 280 266 258 258 211 252 247 250 268 274 273 283 289 290
337 336 331 328 322 317 312 297 294 294 284 277 250 235 272 241 228 244 239 281 287 263 239 266 187 249 298 282 295 270 260 259 266 252 242 221 243 248 234 234 258 260 258 263 277
339 338 333 329 325 320 314 288 281 322 232 227 252 285 273 248 260 232 257 261 261 268 293 272 244 219 252 230 249 258 274 285 290 303 309 261 290 286 250 218 238 257 262 260 261
338 336 334 329 326 326 338 8 339 33 240 237 258 228 272 322 331 292 278 272 279 279 276 257 259 227 243 244 254 276 287 282 283 286 296 295 261 257 266 249 265 250 253 265 251
337 336 332 326 320 325 289 261 21 230 302 282 274 263 256 257 272 265 266 243 298 269 265 269 249 244 254 252 240 242 250 265 272 280 279 285 277 268 260 241 241 224 277 272 272
336 335 331 324 314 240 222 259 354 16 303 293 229 230 238 229 258 271 199 215 253 298 298 271 281 291 294 299 297 285 266 252 266 272 264 311 285 276 264 259 250 226 224 252 258
335 334 333 326 332 316 302 336 30 68 286 250 188 154 249 264 271 31 360 284 247 277 275 272 286 290 297 292 292 282 289 301 306 309 271 212 276 259 257 276 265 260 232 239 249
332 332 330 315 304 311 299 22 77 47 22 33 41 146 346 325 302 340 358 352 329 317 296 276 276 276 282 286 283 281 286 284 287 260 285 255 259 271 221 252 251 254 245 247 253
331 328 332 126 208 247 313 332 70 1 285 55 18 354 334 321 341 2 19 14 320 311 294 283 296 287 273 300 299 311 328 318 314 272 258 220 228 264 234 245 255 256 240 235 244
329 320 315 306 256 312 356 343 11 264 356 359 352 347 311 359 353 10 360 351 11 336 352 308 275 272 53 20 333 49 21 282 246 216 256 196 225 241 276 242 245 248 254 244 230
329 316 218 223 272 308 1 8 278 352 346 357 345 319 356 347 356 353 344 330 349 11 309 340 329 4 343 317 300 283 161 272 294 244 295 274 251 247 230 254 252 270 255 244 250
323 323 251 249 230 47 40 333 359 354 359 348 333 335 331 328 333 349 341 307 355 52 348 301 256 322 305 294 278 230 194 162 251 233 252 223 273 281 264 254 259 259 346 268 239
319 285 270 296 156 62 44 259 353 351 351 349 323 322 328 325 333 350 328 297 324 120 118 255 287 276 288 307 279 238 155 271 203 240 243 230 275 261 12 359 322 304 273 316 277
276 311 253 286 115 16 42 352 337 318 349 300 314 316 313 320 318 311 289 300 272 323 287 281 219 281 303 231 232 289 349 180 241 230 271 300 250 191 128 329 312 276 270 280 305
329 331 331 19 35 347 360 343 314 315 305 315 330 306 300 308 306 313 288 276 256 225 241 247 289 282 281 273 270 250 228 207 236 234 232 260 256 295 297 213 227 278 279 282 277
317 269 5 14 27 331 320 330 308 311 341 341 318 310 308 300 304 298 291 308 187 122 184 179 233 296 299 313 30 38 326 252 267 259 239 245 256 352 319 288 275 262 286 278 301
294 314 336 337 2 339 327 311 311 350 335 336 319 305 313 303 289 292 322 316 332 173 208 162 230 223 260 278 297 289 278 271 263 247 268 237 273 276 278 276 283 305 349 306 322
258 4 341 313 324 310 316 305 330 328 335 339 320 322 305 306 313 325 318 315 318 38 139 168 252 246 252 260 268 270 272 286 273 288 250 302 279 300 307 307 311 324 321 319 337
359 346 340 289 294 325 317 340 326 332 330 318 316 306 299 315 335 322 311 308 301 114 135 240 275 296 288 273 266 275 35 351 305 276 277 269 263 255 305 310 306 303 305 304 321
7 348 288 293 318 326 314 324 312 328 310 314 309 315 340 335 315 299 292 295 197 152 186 231 283 302 277 323 307 146 44 350 290 268 269 269 313 338 300 291 272 283 280 279 258